This is the latest recevied weather packets stored in our database for station/object N9WHM. If no packets are shown the sender has not sent any weather packets the latest 10 day(s).
| Time | Temp. | Humidity | Pressure | Rain* | Wind** | Luminosity | Snow |
|---|---|---|---|---|---|---|---|
| 1777674080 | 12.78° C | 34% | 1018.5 hPa | 0 mm | - | 391 W/m² | - |
| 1777673776 | 12.78° C | 35% | 1018.5 hPa | 0 mm | - | 397 W/m² | - |
| 1777673474 | 12.78° C | 33% | 1018.6 hPa | 0 mm | - | 414 W/m² | - |
| 1777673171 | 13.33° C | 32% | 1018.5 hPa | 0 mm | - | 428 W/m² | - |
| 1777672868 | 12.78° C | 35% | 1018.5 hPa | 0 mm | - | 462 W/m² | - |
| 1777672565 | 12.78° C | 35% | 1018.6 hPa | 0 mm | - | 474 W/m² | - |
| 1777672260 | 12.78° C | 34% | 1018.4 hPa | 0 mm | - | 493 W/m² | - |
| 1777671955 | 12.22° C | 35% | 1018.4 hPa | 0 mm | - | 504 W/m² | - |
| 1777671651 | 12.78° C | 36% | 1018.6 hPa | 0 mm | - | 110 W/m² | - |
| 1777671348 | 13.33° C | 34% | 1018.6 hPa | 0 mm | - | 522 W/m² | - |
| 1777671044 | 13.33° C | 37% | 1018.6 hPa | 0 mm | - | 540 W/m² | - |
| 1777670740 | 12.78° C | 34% | 1018.5 hPa | 0 mm | - | 589 W/m² | - |
| 1777670438 | 12.78° C | 35% | 1018.6 hPa | 0 mm | - | 614 W/m² | - |
| 1777670134 | 12.78° C | 35% | 1018.8 hPa | 0 mm | - | 221 W/m² | - |
| 1777669833 | 13.33° C | 35% | 1018.7 hPa | 0 mm | - | 641 W/m² | - |
| 1777669528 | 12.78° C | 35% | 1018.8 hPa | 0 mm | - | 182 W/m² | - |
| 1777669225 | 12.78° C | 33% | 1019 hPa | 0 mm | - | 629 W/m² | - |
| 1777668922 | 12.22° C | 37% | 1018.9 hPa | 0 mm | - | 641 W/m² | - |
| 1777668620 | 12.22° C | 34% | 1018.8 hPa | 0 mm | - | 174 W/m² | - |
| 1777668315 | 12.78° C | 34% | 1019 hPa | 0 mm | - | 197 W/m² | - |
| 1777668011 | 12.78° C | 37% | 1019 hPa | 0 mm | - | 274 W/m² | - |
| 1777667708 | 12.78° C | 37% | 1018.9 hPa | 0 mm | - | 759 W/m² | - |
| 1777667406 | 12.78° C | 33% | 1019.2 hPa | 0 mm | - | 724 W/m² | - |
| 1777667103 | 11.67° C | 34% | 1019.1 hPa | 0 mm | - | 663 W/m² | - |
| 1777666799 | 11.67° C | 35% | 1019.1 hPa | 0 mm | - | 157 W/m² | - |
* Rain latest hour (hover to see other rain measurements)
** Current wind speed in m/s (hover to see current wind gust speed)